AirNav   Everest Fuels
 
 297 users online  

X44 Miami Seaplane Base
Miami, Florida, USA

GOING TO MIAMI?


FAA INFORMATION EFFECTIVE 18 JUNE 2020

Location

FAA Identifier: X44
Lat/Long: 25-46-42.0000N 080-10-13.0000W
25-46.700000N 080-10.216667W
25.7783333,-80.1702778
(estimated)
Elevation: 6 ft. / 2 m (estimated)
Variation: 03W (1985)
From city: 2 miles E of MIAMI, FL
Time zone: UTC -4 (UTC -5 during Standard Time)
Zip code: 33132

Seaplane Base Operations

Seaplane Base use: Open to the public, ALL TERMINAL FACILITIES ARE PRIVATE USE.
Activation date: 03/1948
Control tower: no
ARTCC: MIAMI CENTER
FSS: MIAMI FLIGHT SERVICE STATION
NOTAMs facility: MIA (NOTAM-D service available)
Attendance: DAYLIGHT HOURS
Wind indicator: yes, WIND SOCK LCTD APRXLY 500FT NW OF RAMP.
Segmented circle: no

Seaplane Base Communications

CTAF: 123.025
UNICOM: 122.8
WX ASOS at MIA (7 nm W): 119.15 (305-870-0235)
WX ASOS at OPF (10 nm NW): 125.9 (305-681-4063)
WX ASOS at HWO (14 nm N): PHONE 954-983-5904
WX ASOS at TMB (16 nm SW): PHONE 305-235-1332
WX ASOS at FLL (18 nm N): PHONE 954-359-7857

Nearby radio navigation aids

VOR radial/distance  VOR name  Freq  Var
VKZr336/1.8VIRGINIA KEY VOR/DME117.1004W
DHPr102/9.7DOLPHIN VORTAC113.9004W
FLLr187/17.7FORT LAUDERDALE VOR/DME114.4006W

Seaplane Base Services

Airframe service: NONE
Powerplant service: NONE
Bottled oxygen: NONE
Bulk oxygen: NONE

Runway Information

Helipad H1

Dimensions: 50 x 50 ft. / 15 x 15 m
Surface: concrete, in excellent condition
Latitude: 25-46.970000N
Longitude: 080-10.580667W
Elevation: 6.0 ft.
Traffic pattern: leftleft

Runway 12W/30W

Dimensions: 14000 x 200 ft. / 4267 x 61 m
Surface: water
RUNWAY 12W  RUNWAY 30W
Latitude: 25-46.984333N25-45.989500N
Longitude: 080-10.774000W080-08.469667W
Elevation: 0.0 ft.0.0 ft.
Traffic pattern: leftleft
Runway heading: 123 magnetic, 120 true303 magnetic, 300 true

Seaplane Base Ownership and Management from official FAA records

Ownership: Publicly-owned
Owner: CITY OF MIAMI
444 SW 2NE, MIAMI SEAPLANE BASE
MIAMI, FL 33130
Phone 305-416-1025
Manager: EMILIO T. GONZALEZ
CITY MANAGER, 444 SW 2ND AVE
MIAMI, FL 33130
Phone 305-416-1025

Seaplane Base Operational Statistics

Aircraft operations: avg 37/week *
100% air taxi
* for 12-month period ending 02 May 2018

Additional Remarks

MIAMI HELIPORT LCTD 400 FT NE.
500 FT RDO TWR 3/4MI W OF BASE.
NUMEROUS WATERCRAFT AND LARGE PASSENGER VESSELS IN AREA.
FOR CD CTC MIAMI APCH AT 305-869-5432.

Instrument Procedures

There are no published instrument procedures at X44.

Some nearby airports with instrument procedures:

KMIA - Miami International Airport (7 nm W)
KOPF - Miami-Opa Locka Executive Airport (10 nm NW)
KHWO - North Perry Airport (14 nm N)
KTMB - Miami Executive Airport (16 nm SW)
KFLL - Fort Lauderdale/Hollywood International Airport (18 nm N)
 
Loc | Ops | Rwys | IFR | FBO | Links
Com | Nav | Svcs | Stats | Notes


 
Area around X44 (Miami Seaplane Base)
 
Road maps at: MapQuest Bing Google
 
Aerial photo
WARNING: Photo may not be current or correct
Aerial photo of X44 (Miami Seaplane Base)
Photo by Mike McKenney, Bill McKenney piloting
Photo taken 12-Feb-2009
looking SE (from a left base), altitude is 400 feet. Landing zone is in the channel.

Do you have a better or more recent aerial photo of Miami Seaplane Base that you would like to share? If so, please send us your photo.

 
Sectional chart

 
Airport distance calculator
Flying to Miami Seaplane Base? Find the distance to fly.

From to X44

Sunrise and sunset
Times for 06-Jul-2020
 Local
(UTC-4)
 Zulu
(UTC)
Morning civil twilight06:1010:10
Sunrise06:3610:36
Sunset20:1500:15
Evening civil twilight20:4100:41

Current date and time
Zulu (UTC)  06-Jul-2020 09:15:49
Local (UTC-4)  06-Jul-2020 05:15:49
 
METAR
KMIA 
8nm W 
060853Z 00000KT 10SM FEW200 BKN250 27/23 A3000 RMK AO2 SLP158 T02670233 55010 $
KOPF 
10nm NW 
060853Z AUTO 32003KT 10SM CLR 24/22 A3000 RMK AO2 SLP160 T02390222 55008
KHWO 
14nm N 
060853Z AUTO 29004KT 10SM CLR A3001 RMK AO2 SLP164 55007
KTMB 
16nm SW 
060853Z AUTO 00000KT 10SM CLR 24/23 A2999 RMK AO2 SLP155 T02390233 55010
KFLL 
17nm N 
060853Z 31003KT 10SM FEW150 25/24 A2999 RMK AO2 SLP156 T02500239 55008 $
TAF
KMIA 
8nm W 
060525Z 0606/0712 VRB04KT P6SM FEW050 SCT120 SCT250 FM061600 15008KT P6SM VCTS BKN035CB BKN100 PROB30 0618/0624 3SM TSRA BKN025CB FM070000 VRB04KT P6SM VCSH SCT040 BKN100 BKN250 FM070600 VRB02KT P6SM FEW050 BKN250
KOPF 
10nm NW 
060525Z 0606/0706 VRB04KT P6SM FEW050 SCT120 SCT250 FM061600 15008KT P6SM VCTS BKN035CB BKN100 PROB30 0618/0624 3SM TSRA BKN025CB FM070000 VRB04KT P6SM VCSH SCT040 BKN100 BKN250
KTMB 
16nm SW 
060525Z 0606/0706 VRB04KT P6SM FEW050 SCT120 SCT250 FM061600 17008KT P6SM VCTS BKN035CB BKN100 PROB30 0618/0624 3SM TSRA BKN025CB FM070000 VRB03KT P6SM VCSH SCT040 BKN100 BKN250
KFLL 
17nm N 
060525Z 0606/0712 VRB04KT P6SM FEW050 SCT120 SCT250 FM061600 13009KT P6SM VCTS BKN035CB BKN100 PROB30 0618/0624 3SM TSRA BKN025CB FM070000 VRB04KT P6SM VCSH SCT040 BKN100 BKN250 FM070600 VRB03KT P6SM FEW050 BKN250
NOTAMs
Click for the latest NOTAMs
NOTAMs are issued by the DoD/FAA and will open in a separate window not controlled by AirNav.

 

 
 

Would you like to see your business listed on this page?

 If your business provides an interesting product or service to pilots, flight crews, aircraft, or users of the Miami Seaplane Base, you should consider listing it here.  To start the listing process, click on the button below
 
Add a business
 

Other Pages about Miami Seaplane Base

www.miamiseaplanebase.com
 
Update a link
 
Copyright © AirNav, LLC. All rights reserved. Privacy Policy  Contact